Regional Weather Roundup
Issued by NWS

Home | Current Version | Previous Version | Text Only | Print | Product List | Glossary Off
Versions: 1 2 3 4 5 6 7 8 9 10 11 12 13 14 15 16 17 18 19 20 21 22 23 24 25 26 27 28 29 30 31 32 33 34 35 36 37 38 39 40 41 42 43 44 45 46 47 48 49 50

000
ASUS43 KDMX 140008
RWRIA

WEATHER ROUNDUP FOR IOWA
NATIONAL WEATHER SERVICE DES MOINES IA
600 PM CST SAT FEB 13 2016

NOTE: "FAIR" INDICATES FEW OR NO CLOUDS BELOW 12,000 FEET WITH NO
SIGNIFICANT WEATHER AND/OR OBSTRUCTIONS TO VISIBILITY.

* - THESE STATIONS ARE NOT NWS STATIONS...THUS NOT UNDER NWS
QUALITY CONTROL.  THEY ALSO DO NOT REPORT WEATHER SUCH
AS PRECIPITATION OR FOG.

IAZ001>003-012>014-020>022-031>034-043>046-140100-
   NORTHWEST IOWA

CITY           SKY/WX    TMP DP  RH WIND       PRES   REMARKS
CARROLL *      LGT SNOW  12   5  73 SE15      30.34F WCI  -4
CHEROKEE *     LGT SNOW  10   6  82 SE10      30.31F WCI  -4
DENISON *      LGT SNOW  12   9  85 SE10      30.30F WCI  -1
LE MARS *      LGT SNOW  12  10  92 SE16G24   30.27F VSB 3/4 WCI  -4
ORANGE CITY *  LGT SNOW  10   7  85 SE9       30.25F WCI  -2
SHELDON *      CLOUDY    10   3  72 SE13      30.27F WCI  -5
SIOUX CITY     CLOUDY    16   4  59 SE20      30.26F WCI  -1
6HR MIN TEMP:  10; 6HR MAX TEMP:  16; 6HR PCP: TRACE;

SPENCER        CLOUDY     9   0  67 SE15      30.32F WCI  -8
6HR MIN TEMP:   4; 6HR MAX TEMP:   9;

STORM LAKE *   MOCLDY     9   5  85 SE17G23   30.29F HAZE    WCI -10
$$

IAZ055>058-069>071-079>083-090>094-140100-
   SOUTHWEST IOWA

CITY           SKY/WX    TMP DP  RH WIND       PRES   REMARKS
ATLANTIC *     CLOUDY    16   7  67 SE9       30.33F WCI   4
AUDUBON *      LGT SNOW  14   7  73 SE12      30.32F WCI   0
CLARINDA *     CLOUDY    18   0  45 SE8G15    30.36F WCI   7
COUNCIL BLFS * CLOUDY    18   5  57 SE14      30.28F WCI   4
CRESTON *      CLOUDY    16   3  57 SE15      30.34F WCI   1
HARLAN  *      CLOUDY    16   7  67 SE13G18   30.33F WCI   2
LAMONI         LGT SNOW  15   6  67 SE8       30.36F WCI   4
6HR MIN TEMP:  13; 6HR MAX TEMP:  17; 6HR PCP: TRACE;

RED OAK *      CLOUDY    18   1  49 SE13      30.33F WCI   4
SHENANDOAH *   CLOUDY    19   1  45 E14G20    30.34F WCI   6
$$

IAZ047>049-059>061-072>074-084-140100-
   CENTRAL IOWA

CITY           SKY/WX    TMP DP  RH WIND       PRES   REMARKS
AMES           CLOUDY    13   1  59 SE10      30.40F WCI   0
6HR MIN TEMP:   7; 6HR MAX TEMP:  13;

ANKENY *       CLOUDY    14   1  57 SE10      30.40F WCI   1
BOONE *        CLOUDY    12   1  62 SE16      30.36F WCI  -4
CHARITON *     CLOUDY    16   1  53 SE12      30.39F WCI   3
DES MOINES     CLOUDY    15  -1  49 SE12      30.40F WCI   2
6HR MIN TEMP:  10; 6HR MAX TEMP:  15;

GRINNELL*      CLOUDY    16   3  57 SE10      30.41F WCI   3
KNOXVILLE *    CLOUDY    16   0  48 SE10G16   30.39F WCI   3
MARSHALLTOWN   CLOUDY    13   2  61 E14       30.41F WCI  -2
6HR MIN TEMP:   8; 6HR MAX TEMP:  14;

NEWTON *       CLOUDY    16   3  57 SE12      30.41F WCI   3
PELLA *        MOCLDY    16   4  58 SE9       30.43F WCI   5
$$

IAZ004>006-015-016-023>025-035-036-140100-
   NORTH CENTRAL IOWA

CITY           SKY/WX    TMP DP  RH WIND       PRES   REMARKS
ALGONA *       CLOUDY    10   1  67 SE13      30.34F WCI  -5
CLARION *      CLOUDY    10   0  61 SE15      30.37F WCI  -6
ESTHERVILLE    CLOUDY     8  -1  66 SE16      30.32F WCI -10
6HR MIN TEMP:   3; 6HR MAX TEMP:   8;

FORT DODGE *   CLOUDY    10   0  61 SE8       30.36F WCI  -1
MASON CITY     CLOUDY     6  -2  69 SE9       30.41F WCI  -8
6HR MIN TEMP:   2; 6HR MAX TEMP:   6;

FOREST CITY *  CLOUDY     9  -2  61 SE10      30.37F WCI  -6
WEBSTER CITY * CLOUDY    12   1  62 SE16      30.35F WCI  -4
IOWA FALLS *   CLOUDY    12   3  67 E12       30.40F WCI  -2
$$

IAZ007>011-017>019-026>030-037>042-050>054-066-140100-
   NORTHEAST IOWA

CITY           SKY/WX    TMP DP  RH WIND       PRES   REMARKS
CEDAR RAPIDS   CLOUDY    15  -1  49 E7        30.45F WCI   5
6HR MIN TEMP:  11; 6HR MAX TEMP:  16;

CHARLES CITY * CLOUDY     7  -6  56 SE8       30.43F WCI  -6
CLINTON *      CLOUDY    13  -4  46 CALM      30.50F
DECORAH *      CLEAR      3  -9  55 S3        30.43F
DUBUQUE        CLEAR     10  -4  53 NE5       30.46F WCI   2
6HR MIN TEMP:   8; 6HR MAX TEMP:  13;

MONTICELLO *   CLEAR     12  -6  44 CALM      30.48S
OELWEIN *      CLEAR      7  -4  61 SE6       30.45F WCI  -3
WATERLOO       CLOUDY     9  -3  58 SE8       30.44F WCI  -3
6HR MIN TEMP:   4; 6HR MAX TEMP:   9;

$$

IAZ064-065-067-068-078-140100-
   EAST CENTRAL IOWA

CITY           SKY/WX    TMP DP  RH WIND       PRES   REMARKS
DAVENPORT      CLOUDY    16  -6  37 E3        30.49S
6HR MIN TEMP:  12; 6HR MAX TEMP:  18;

IOWA CITY      CLOUDY    17  -4  39 SE6       30.49F WCI   9
6HR MIN TEMP:  15; 6HR MAX TEMP:  19;

MT. PLEASANT * CLOUDY    21   2  44 E6        30.46F WCI  14
MUSCATINE *    CLEAR     18  -4  38 CALM      30.50F
QUAD CITIES    CLOUDY    18  -5  36 S5        30.49F WCI  11
6HR MIN TEMP:  15; 6HR MAX TEMP:  20;

$$

IAZ062-063-075>077-085>089-095>099-140100-
   SOUTHEAST IOWA

CITY           SKY/WX    TMP DP  RH WIND       PRES   REMARKS
BURLINGTON     CLOUDY    18  -1  43 E7        30.47F WCI   9
6HR MIN TEMP:  14; 6HR MAX TEMP:  20;

FAIRFIELD *    CLOUDY    18  -2  41 E12       30.44F WCI   5
FORT MADISON * CLOUDY    18   1  49 E8        30.46F WCI   7
KEOKUK *       CLOUDY    18   5  57 SE6       30.46F WCI   9
OSKALOOSA *    CLOUDY    17   4  57 SE10      30.43F WCI   4
CENTERVILLE *  MOCLDY    16   1  53 SE10      30.41F WCI   3
OTTUMWA        CLOUDY    17   4  56 SE9       30.43F WCI   6
6HR MIN TEMP:  11; 6HR MAX TEMP:  17;

WASHINGTON *   CLOUDY    18   0  45 E9        30.47F WCI   6
$$

ABBREVIATIONS USED IN REMARKS
   TC - TEMPERATURES IN CELSIUS
  WCI - WIND CHILL INDEX
   HX - HEAT INDEX
  VSB - VISIBILITY
$$




USA.gov is the U.S. government's official web portal to all federal, state and local government web resources and services.